Location: Foligno
(42.9600°N, 12.7050°E)
Time: 07:55:18
(UTC+02:00)

ISS - Pass Details

Date: 20 May 2018
Orbit: 402 x 407 km, 51.6° (Epoch: 24 May)

Event Time Altitude Azimuth Distance (km) Brightness Sun altitude
Rises 04:49:43 0° 302° (WNW) 2,318 -0.2 -8.8°
Reaches altitude 10° 04:51:48 10° 300° (WNW) 1,456 -1.2 -8.4°
Maximum altitude 04:55:03 72° 215° (SW) 424 -3.9 -8.0°
Drops below altitude 10° 04:58:17 10° 131° (SE) 1,449 -0.9 -7.5°
Sets 05:00:22 0° 129° (SE) 2,305 0.2 -7.2°
